Regional Weather Roundup
Issued by NWS

Home | Current Version | Previous Version | Graphics & Text | Print | Product List | Glossary On
Versions: 1 2 3 4 5 6 7 8 9 10 11 12 13 14 15 16 17 18 19 20 21 22 23 24 25 26 27 28 29 30 31 32 33 34 35 36 37 38 39 40 41 42 43 44 45 46 47 48 49 50
000
ASUS43 KMKX 260000
RWRWI

WISCONSIN REGIONAL WEATHER ROUNDUP
NATIONAL WEATHER SERVICE MILWAUKEE/SULLIVAN WI
700 PM CDT SAT OCT 25 2014

NOTE: "FAIR" INDICATES FEW OR NO CLOUDS BELOW 12,000 FEET WITH NO
SIGNIFICANT WEATHER AND/OR OBSTRUCTIONS TO VISIBILITY.

WIZ001-002-006>008-014>016-023>028-260100-
NORTHWEST WISCONSIN

CITY           SKY/WX    TMP DP  RH WIND       PRES   REMARKS
SUPERIOR ARPT  CLEAR     53  26  35 W9        29.97R
ASHLAND        CLEAR     51  27  39 W9        29.94R
6HR MIN TEMP:  51; 6HR MAX TEMP:  61;

HAYWARD        CLEAR     54  22  28 W5        29.97R
6HR MIN TEMP:  54; 6HR MAX TEMP:  62;

SIREN          CLEAR     53  21  28 W7        30.00R
CUMBERLAND     CLEAR     52  21  30 W13       29.98S
RICE LAKE      CLEAR     53  23  31 W8        30.00R
CHETEK         CLEAR     55  24  30 W10G16    29.98R
LADYSMITH      CLEAR     55  22  28 NW13G18   29.97R
EAU CLAIRE     CLEAR     55  26  32 W12       29.98R
6HR MIN TEMP:  55; 6HR MAX TEMP:  63;

MENOMONIE      CLEAR     56  25  29 W9G16     30.00R
NEW RICHMOND   CLEAR     51  26  37 W8        30.02S
OSCEOLA        CLEAR     56  25  30 W10       30.04S
$$

WIZ003>005-009-010-017-018-260100-
NORTH CENTRAL WISCONSIN

CITY           SKY/WX    TMP DP  RH WIND       PRES   REMARKS
MANITOWISH WTR CLEAR     51  24  34 NW13G18   29.90R
ARBOR VITAE    CLEAR     54  22  28 NW10G20   29.90R
WOODRUFF       CLEAR     54  22  28 NW10G20   29.90R
RHINELANDER    CLEAR     51  21  30 W10       29.90R
6HR MIN TEMP:  51; 6HR MAX TEMP:  59;

EAGLE RIVER    CLEAR     51  19  27 NW13      29.87R
LAND O LAKES   FAIR      52  22  30 NW12G17   29.87R
PHILLIPS       CLEAR     53  22  29 NW7G16    29.92R
TOMAHAWK       CLEAR     53  19  26 W8G17     29.91R
MEDFORD        CLEAR     52  27  38 W9        29.93R
MERRILL        CLEAR     54  24  30 NW8       29.91R
$$

WIZ029-030-035-036-043>047-260100-
CENTRAL WISCONSIN

CITY           SKY/WX    TMP DP  RH WIND       PRES   REMARKS
WAUSAU         CLEAR     52  26  36 W10       29.90R
6HR MIN TEMP:  52; 6HR MAX TEMP:  61;

MOSINEE        CLEAR     54  27  35 W14       29.92R
MARSHFIELD     CLEAR     51  29  42 W9        29.94R
6HR MIN TEMP:  51; 6HR MAX TEMP:  62;

STEVENS POINT  CLEAR     54  28  37 W7        29.93R
WAUPACA        CLEAR     58  26  30 W9        29.91S
WAUTOMA        NOT AVBL
WISC RAPIDS    CLEAR     55  27  34 W9        29.95R
6HR MIN TEMP:  55; 6HR MAX TEMP:  64;

CAMP DOUGLAS   NOT AVBL
$$

WIZ011>013-019>022-031-037>040-048>050-260100-
NORTHEAST WISCONSIN

CITY           SKY/WX    TMP DP  RH WIND       PRES   REMARKS
ANTIGO         CLEAR     52  25  35 W14       29.88R
SHAWANO        CLEAR     59  26  28 W7        29.87R
OCONTO         CLEAR     56  27  32 W8        29.83R
STURGEON BAY   CLEAR     57  27  30 NW15      29.83R
6HR MIN TEMP:  57; 6HR MAX TEMP:  63;

GREEN BAY      CLEAR     56  30  37 W10       29.86R
6HR MIN TEMP:  55; 6HR MAX TEMP:  66;

MANITOWOC      NOT AVBL
APPLETON       CLEAR     55  27  33 W14       29.90R
CLINTONVILLE   CLEAR     55  27  33 W10G16    29.88R
OSHKOSH        CLEAR     54  32  43 W7        29.90R
6HR MIN TEMP:  54; 6HR MAX TEMP:  64;

$$

WIZ032>034-041-042-053>061-260100-
SOUTHWEST WISCONSIN

CITY           SKY/WX    TMP DP  RH WIND       PRES   REMARKS
LA CROSSE      CLEAR     56  31  38 W9        30.00R
6HR MIN TEMP:  56; 6HR MAX TEMP:  68;

SPARTA         CLEAR     57  24  28 W8        29.99S
VIROQUA        CLEAR     53  27  35 W7        30.00S
BOSCOBEL       CLEAR     61  25  25 NW5       30.00R
6HR MIN TEMP:  61; 6HR MAX TEMP:  70;

PRAIRIE DU CHI CLEAR     60  25  26 W5        30.01R
PLATTEVILLE    CLEAR     57  30  36 W6        30.01R
$$

WIZ056-057-062-063-064-067-068-260100-
SOUTH CENTRAL WISCONSIN

CITY           SKY/WX    TMP DP  RH WIND       PRES   REMARKS
REEDSBURG      CLEAR     57  28  33 W8        29.96R
BARABOO/DELLS  CLEAR     56  25  30 W6        29.96R
LONE ROCK      NOT AVBL
MINERAL POINT  CLEAR     57  25  28 W8        29.99R
MADISON        CLEAR     58  27  30 W3        29.96R
6HR MIN TEMP:  58; 6HR MAX TEMP:  69;

MIDDLETON      CLEAR     58  24  26 W8        29.97R
WATERTOWN      CLEAR     58  28  31 W7        29.93R
MONROE         CLEAR     59  28  31 W12       29.97R
JANESVILLE     CLEAR     55  28  35 NW7       29.95R
$$

WIZ051-052-058>065-066-070>072-260100-
SOUTHEAST WISCONSIN

CITY           SKY/WX    TMP DP  RH WIND       PRES   REMARKS
MILWAUKEE      CLEAR     62  24  23 NW13      29.91R
6HR MIN TEMP:  62; 6HR MAX TEMP:  69;

WAUKESHA       NOT AVBL
MILWAUKEE/TIMM CLEAR     61  21  21 W12       29.91R
RACINE         CLEAR     60  28  29 W6        29.93R
6HR MIN TEMP:  60; 6HR MAX TEMP:  69;

BURLINGTON     CLEAR     55  27  34 NW7       29.93R
KENOSHA        CLEAR     60  28  29 W10       29.92R
6HR MIN TEMP:  60; 6HR MAX TEMP:  70;

FOND DU LAC    CLEAR     54  29  38 W9        29.91R
6HR MIN TEMP:  54; 6HR MAX TEMP:  65;

SHEBOYGAN      CLEAR     58  27  30 W15G26    29.88R
6HR MIN TEMP:  57; 6HR MAX TEMP:  65;

WEST BEND      CLEAR     59  23  25 W14G23    29.90R
JUNEAU         CLEAR     56  29  35 W6        29.94R
$$

LSZ147-162-260100-
LAKE SUPERIOR

STATION/POSITION TIME  TEMP    WIND        PRES    WAVE
                       AIR SEA DIR/SP/G            HT/PER
                 (UTC) (F)     (DEG/KT/KT) (MB)    (FT/S)
W MID LAKE BUOY  2250   50 46  270/ 16/ 19 1009.8R   4/ 5
DEVILS ISLAND    2300   54     280/ 19/ 22 1012.1R
PORT WING        2300   54     270/ 15/ 23 1013.9
SAXON HARBOR     2300   58     280/  8/ 16 1012.5R
$$

LMZ867-665-643>646-260100-
LAKE MICHIGAN

STATION/POSITION TIME  TEMP    WIND        PRES    WAVE
                       AIR SEA DIR/SP/G            HT/PER
                 (UTC) (F)     (DEG/KT/KT) (MB)    (FT/S)
CHAMBERS ISLAND  2300   59     300/  3/ 10 1008.8R
N MID LAKE BUOY  2250   56 51  310/ 16/ 19 1007.7R   3/ 5
NORTHPORT PIER   2300   58     300/  7/ 13 1008.1R
SISTER BAY       2313          310/ 17/ 18   N/A
KEWAUNEE LAKESHO 2300   60     300/  8/ 15 1008.9R
SHEBOYGAN LAKESH 2300   62 51  280/ 12/ 14 1011.5R
PORT WASHINGTON  2340   61     280/  5/ 10 1012.9R
ATWATER BUOY     2300   62     280/ 12/ 14 1013.1R
MILWAUKEE LAKESH 2300   65     290/ 11/ 15   N/A
S MID LAKE BUOY  2250   58 54  280/ 12/ 14 1011.6R   1/ 3
KENOSHA   LAKESH 2300   66     290/ 12/ 18 1012.2R
$$

TC  - TEMPERATURE IN CELSIUS
VSB - VISIBILITY IN STATUTE MILES
WCI - WIND CHILL INDEX
HX  - HEAT INDEX




USA.gov is the U.S. government's official web portal to all federal, state and local government web resources and services.